Year,Month,Day,Hour,Minute,Value (Times are PST for temperature in C)
2010,08,29,00,00,13.70
2010,08,29,00,01,13.60
2010,08,29,00,02,13.60
2010,08,29,00,03,13.60
2010,08,29,00,04,13.60
2010,08,29,00,05,13.60
2010,08,29,00,06,13.60
2010,08,29,00,07,13.60
2010,08,29,00,08,13.70
2010,08,29,00,09,13.70
2010,08,29,00,10,13.70
2010,08,29,00,11,13.70
2010,08,29,00,12,13.70
2010,08,29,00,13,13.70
2010,08,29,00,14,13.70
2010,08,29,00,15,13.70
2010,08,29,00,16,13.70
2010,08,29,00,17,13.70
2010,08,29,00,18,13.70
2010,08,29,00,19,13.70
2010,08,29,00,20,13.70
2010,08,29,00,21,13.70
2010,08,29,00,22,13.70
2010,08,29,00,23,13.70
2010,08,29,00,24,13.60
2010,08,29,00,25,13.60
2010,08,29,00,26,13.60
2010,08,29,00,27,13.60
2010,08,29,00,28,13.50
2010,08,29,00,29,13.50
2010,08,29,00,30,13.40
2010,08,29,00,31,13.40
2010,08,29,00,32,13.40
2010,08,29,00,33,13.30
2010,08,29,00,34,13.30
2010,08,29,00,35,13.30
2010,08,29,00,36,13.30
2010,08,29,00,37,13.20
2010,08,29,00,38,13.20
2010,08,29,00,39,13.20
2010,08,29,00,40,13.20
2010,08,29,00,41,13.20
2010,08,29,00,42,13.20
2010,08,29,00,43,13.20
2010,08,29,00,44,13.20
2010,08,29,00,45,13.20
2010,08,29,00,46,13.20
2010,08,29,00,47,13.20
2010,08,29,00,48,13.20
2010,08,29,00,49,13.20
2010,08,29,00,50,13.20
2010,08,29,00,51,13.10
2010,08,29,00,52,13.10
2010,08,29,00,53,13.10
2010,08,29,00,54,13.10
2010,08,29,00,55,13.10
2010,08,29,00,56,13.10
2010,08,29,00,57,13.10
2010,08,29,00,58,13.10
2010,08,29,00,59,13.10
2010,08,29,01,00,13.10
2010,08,29,01,01,13.10
2010,08,29,01,02,13.10
2010,08,29,01,03,13.10
2010,08,29,01,04,13.10
2010,08,29,01,05,13.10
2010,08,29,01,06,13.10
2010,08,29,01,07,13.10
2010,08,29,01,08,13.00
2010,08,29,01,09,13.00
2010,08,29,01,10,12.90
2010,08,29,01,11,12.90
2010,08,29,01,12,12.90
2010,08,29,01,13,12.80
2010,08,29,01,14,12.80
2010,08,29,01,15,12.80
2010,08,29,01,16,12.80
2010,08,29,01,17,12.80
2010,08,29,01,18,12.80
2010,08,29,01,19,12.80
2010,08,29,01,20,12.80
2010,08,29,01,21,12.70
2010,08,29,01,22,12.70
2010,08,29,01,23,12.70
2010,08,29,01,24,12.70
2010,08,29,01,25,12.70
2010,08,29,01,26,12.80
2010,08,29,01,27,12.80
2010,08,29,01,28,12.80
2010,08,29,01,29,12.80
2010,08,29,01,30,12.80
2010,08,29,01,31,12.80
2010,08,29,01,32,12.80
2010,08,29,01,33,12.80
2010,08,29,01,34,12.80
2010,08,29,01,35,12.80
2010,08,29,01,36,12.80
2010,08,29,01,37,12.80
2010,08,29,01,38,12.80
2010,08,29,01,39,12.80
2010,08,29,01,40,12.80
2010,08,29,01,41,12.80
2010,08,29,01,42,12.70
2010,08,29,01,43,12.70
2010,08,29,01,44,12.60
2010,08,29,01,45,12.60
2010,08,29,01,46,12.50
2010,08,29,01,47,12.50
2010,08,29,01,48,12.40
2010,08,29,01,49,12.40
2010,08,29,01,50,12.30
2010,08,29,01,51,12.30
2010,08,29,01,52,12.30
2010,08,29,01,53,12.30
2010,08,29,01,54,12.30
2010,08,29,01,55,12.30
2010,08,29,01,56,12.30
2010,08,29,01,57,12.30
2010,08,29,01,58,12.30
2010,08,29,01,59,12.30
2010,08,29,02,00,12.20
2010,08,29,02,01,12.20
2010,08,29,02,02,12.20
2010,08,29,02,03,12.20
2010,08,29,02,04,12.20
2010,08,29,02,05,12.20
2010,08,29,02,06,12.20
2010,08,29,02,07,12.10
2010,08,29,02,08,12.10
2010,08,29,02,09,12.00
2010,08,29,02,10,12.00
2010,08,29,02,11,11.90
2010,08,29,02,12,11.90
2010,08,29,02,13,11.80
2010,08,29,02,14,11.70
2010,08,29,02,15,11.70
2010,08,29,02,16,11.70
2010,08,29,02,17,11.70
2010,08,29,02,18,11.70
2010,08,29,02,19,11.60
2010,08,29,02,20,11.60
2010,08,29,02,21,11.60
2010,08,29,02,22,11.70
2010,08,29,02,23,11.70
2010,08,29,02,24,11.70
2010,08,29,02,25,11.70
2010,08,29,02,26,11.80
2010,08,29,02,27,11.80
2010,08,29,02,28,11.80
2010,08,29,02,29,11.80
2010,08,29,02,30,11.80
2010,08,29,02,31,11.80
2010,08,29,02,32,11.80
2010,08,29,02,33,11.70
2010,08,29,02,34,11.70
2010,08,29,02,35,11.70
2010,08,29,02,36,11.70
2010,08,29,02,37,11.70
2010,08,29,02,38,11.70
2010,08,29,02,39,11.70
2010,08,29,02,40,11.70
2010,08,29,02,41,11.70
2010,08,29,02,42,11.70
2010,08,29,02,43,11.70
2010,08,29,02,44,11.70
2010,08,29,02,45,11.70
2010,08,29,02,46,11.70
2010,08,29,02,47,11.70
2010,08,29,02,48,11.70
2010,08,29,02,49,11.70
2010,08,29,02,50,11.70
2010,08,29,02,51,11.70
2010,08,29,02,52,11.60
2010,08,29,02,53,11.60
2010,08,29,02,54,11.60
2010,08,29,02,55,11.50
2010,08,29,02,56,11.50
2010,08,29,02,57,11.40
2010,08,29,02,58,11.40
2010,08,29,02,59,11.30
2010,08,29,03,00,11.30
2010,08,29,03,01,11.30
2010,08,29,03,02,11.30
2010,08,29,03,03,11.30
2010,08,29,03,04,11.20
2010,08,29,03,05,11.20
2010,08,29,03,06,11.20
2010,08,29,03,07,11.20
2010,08,29,03,08,11.10
2010,08,29,03,09,11.10
2010,08,29,03,10,11.10
2010,08,29,03,11,11.10
2010,08,29,03,12,11.00
2010,08,29,03,13,11.00
2010,08,29,03,14,11.00
2010,08,29,03,15,11.00
2010,08,29,03,16,10.90
2010,08,29,03,17,10.90
2010,08,29,03,18,10.90
2010,08,29,03,19,10.90
2010,08,29,03,20,10.90
2010,08,29,03,21,10.80
2010,08,29,03,22,10.80
2010,08,29,03,23,10.80
2010,08,29,03,24,10.70
2010,08,29,03,25,10.70
2010,08,29,03,26,10.70
2010,08,29,03,27,10.70
2010,08,29,03,28,10.60
2010,08,29,03,29,10.60
2010,08,29,03,30,10.60
2010,08,29,03,31,10.60
2010,08,29,03,32,10.50
2010,08,29,03,33,10.50
2010,08,29,03,34,10.40
2010,08,29,03,35,10.40
2010,08,29,03,36,10.40
2010,08,29,03,37,10.40
2010,08,29,03,38,10.40
2010,08,29,03,39,10.40
2010,08,29,03,40,10.40
2010,08,29,03,41,10.40
2010,08,29,03,42,10.40
2010,08,29,03,43,10.50
2010,08,29,03,44,10.60
2010,08,29,03,45,10.60
2010,08,29,03,46,10.80
2010,08,29,03,47,10.90
2010,08,29,03,48,11.00
2010,08,29,03,49,11.10
2010,08,29,03,50,11.20
2010,08,29,03,51,11.30
2010,08,29,03,52,11.30
2010,08,29,03,53,11.40
2010,08,29,03,54,11.40
2010,08,29,03,55,11.50
2010,08,29,03,56,11.50
2010,08,29,03,57,11.50
2010,08,29,03,58,11.50
2010,08,29,03,59,11.50
2010,08,29,04,00,11.40
2010,08,29,04,01,11.40
2010,08,29,04,02,11.40
2010,08,29,04,03,11.30
2010,08,29,04,04,11.30
2010,08,29,04,05,11.30
2010,08,29,04,06,11.20
2010,08,29,04,07,11.20
2010,08,29,04,08,11.20
2010,08,29,04,09,11.10
2010,08,29,04,10,11.00
2010,08,29,04,11,11.00
2010,08,29,04,12,10.90
2010,08,29,04,13,10.80
2010,08,29,04,14,10.80
2010,08,29,04,15,10.70
2010,08,29,04,16,10.70
2010,08,29,04,17,10.60
2010,08,29,04,18,10.60
2010,08,29,04,19,10.50
2010,08,29,04,20,10.50
2010,08,29,04,21,10.40
2010,08,29,04,22,10.40
2010,08,29,04,23,10.40
2010,08,29,04,24,10.30
2010,08,29,04,25,10.30
2010,08,29,04,26,10.30
2010,08,29,04,27,10.30
2010,08,29,04,28,10.30
2010,08,29,04,29,10.20
2010,08,29,04,30,10.20
2010,08,29,04,31,10.20
2010,08,29,04,32,10.20
2010,08,29,04,33,10.20
2010,08,29,04,34,10.20
2010,08,29,04,35,10.20
2010,08,29,04,36,10.20
2010,08,29,04,37,10.20
2010,08,29,04,38,10.20
2010,08,29,04,39,10.30
2010,08,29,04,40,10.30
2010,08,29,04,41,10.30
2010,08,29,04,42,10.30
2010,08,29,04,43,10.40
2010,08,29,04,44,10.40
2010,08,29,04,45,10.40
2010,08,29,04,46,10.50
2010,08,29,04,47,10.50
2010,08,29,04,48,10.60
2010,08,29,04,49,10.60
2010,08,29,04,50,10.60
2010,08,29,04,51,10.60
2010,08,29,04,52,10.60
2010,08,29,04,53,10.60
2010,08,29,04,54,10.50
2010,08,29,04,55,10.50
2010,08,29,04,56,10.40
2010,08,29,04,57,10.40
2010,08,29,04,58,10.40
2010,08,29,04,59,10.40
2010,08,29,05,00,10.30
2010,08,29,05,01,10.30
2010,08,29,05,02,10.30
2010,08,29,05,03,10.30
2010,08,29,05,04,10.30
2010,08,29,05,05,10.30
2010,08,29,05,06,10.30
2010,08,29,05,07,10.30
2010,08,29,05,08,10.30
2010,08,29,05,09,10.30
2010,08,29,05,10,10.30
2010,08,29,05,11,10.30
2010,08,29,05,12,10.30
2010,08,29,05,13,10.30
2010,08,29,05,14,10.40
2010,08,29,05,15,10.40
2010,08,29,05,16,10.40
2010,08,29,05,17,10.50
2010,08,29,05,18,10.50
2010,08,29,05,19,10.50
2010,08,29,05,20,10.60
2010,08,29,05,21,10.60
2010,08,29,05,22,10.60
2010,08,29,05,23,10.60
2010,08,29,05,24,10.50
2010,08,29,05,25,10.50
2010,08,29,05,26,10.40
2010,08,29,05,27,10.30
2010,08,29,05,28,10.30
2010,08,29,05,29,10.20
2010,08,29,05,30,10.10
2010,08,29,05,31,10.10
2010,08,29,05,32,10.10
2010,08,29,05,33,10.00
2010,08,29,05,34,10.00
2010,08,29,05,35,9.90
2010,08,29,05,36,9.90
2010,08,29,05,37,9.80
2010,08,29,05,38,9.80
2010,08,29,05,39,9.80
2010,08,29,05,40,9.80
2010,08,29,05,41,9.70
2010,08,29,05,42,9.70
2010,08,29,05,43,9.70
2010,08,29,05,44,9.70
2010,08,29,05,45,9.70
2010,08,29,05,46,9.60
2010,08,29,05,47,9.60
2010,08,29,05,48,9.60
2010,08,29,05,49,9.60
2010,08,29,05,50,9.60
2010,08,29,05,51,9.60
2010,08,29,05,52,9.50
2010,08,29,05,53,9.50
2010,08,29,05,54,9.40
2010,08,29,05,55,9.40
2010,08,29,05,56,9.40
2010,08,29,05,57,9.30
2010,08,29,05,58,9.30
2010,08,29,05,59,9.30
2010,08,29,06,00,9.20
2010,08,29,06,01,9.20
2010,08,29,06,02,9.20
2010,08,29,06,03,9.20
2010,08,29,06,04,9.20
2010,08,29,06,05,9.10
2010,08,29,06,06,9.10
2010,08,29,06,07,9.10
2010,08,29,06,08,9.10
2010,08,29,06,09,9.10
2010,08,29,06,10,9.10
2010,08,29,06,11,9.00
2010,08,29,06,12,9.00
2010,08,29,06,13,9.00
2010,08,29,06,14,9.00
2010,08,29,06,15,8.90
2010,08,29,06,16,8.90
2010,08,29,06,17,8.90
2010,08,29,06,18,8.90
2010,08,29,06,19,8.90
2010,08,29,06,20,8.90
2010,08,29,06,21,8.80
2010,08,29,06,22,8.80
2010,08,29,06,23,8.80
2010,08,29,06,24,8.80
2010,08,29,06,25,8.80
2010,08,29,06,26,8.80
2010,08,29,06,27,8.80
2010,08,29,06,28,8.80
2010,08,29,06,29,8.70
2010,08,29,06,30,8.70
2010,08,29,06,31,8.70
2010,08,29,06,32,8.70
2010,08,29,06,33,8.70
2010,08,29,06,34,8.70
2010,08,29,06,35,8.70
2010,08,29,06,36,8.70
2010,08,29,06,37,8.70
2010,08,29,06,38,8.70
2010,08,29,06,39,8.70
2010,08,29,06,40,8.70
2010,08,29,06,41,8.70
2010,08,29,06,42,8.70
2010,08,29,06,43,8.70
2010,08,29,06,44,8.70
2010,08,29,06,45,8.70
2010,08,29,06,46,8.70
2010,08,29,06,47,8.70
2010,08,29,06,48,8.70
2010,08,29,06,49,8.80
2010,08,29,06,50,8.80
2010,08,29,06,51,8.80
2010,08,29,06,52,8.90
2010,08,29,06,53,8.90
2010,08,29,06,54,9.00
2010,08,29,06,55,9.00
2010,08,29,06,56,9.00
2010,08,29,06,57,9.10
2010,08,29,06,58,9.10
2010,08,29,06,59,9.10
2010,08,29,07,00,9.20
2010,08,29,07,01,9.20
2010,08,29,07,02,9.20
2010,08,29,07,03,9.30
2010,08,29,07,04,9.30
2010,08,29,07,05,9.30
2010,08,29,07,06,9.40
2010,08,29,07,07,9.50
2010,08,29,07,08,9.60
2010,08,29,07,09,9.60
2010,08,29,07,10,9.70
2010,08,29,07,11,9.70
2010,08,29,07,12,9.80
2010,08,29,07,13,9.90
2010,08,29,07,14,10.00
2010,08,29,07,15,10.10
2010,08,29,07,16,10.20
2010,08,29,07,17,10.40
2010,08,29,07,18,10.50
2010,08,29,07,19,10.60
2010,08,29,07,20,10.70
2010,08,29,07,21,10.90
2010,08,29,07,22,11.00
2010,08,29,07,23,11.10
2010,08,29,07,24,11.30
2010,08,29,07,25,11.40
2010,08,29,07,26,11.50
2010,08,29,07,27,11.60
2010,08,29,07,28,11.70
2010,08,29,07,29,11.80
2010,08,29,07,30,11.90
2010,08,29,07,31,12.00
2010,08,29,07,32,12.20
2010,08,29,07,33,12.30
2010,08,29,07,34,12.40
2010,08,29,07,35,12.50
2010,08,29,07,36,12.60
2010,08,29,07,37,12.70
2010,08,29,07,38,12.80
2010,08,29,07,39,12.80
2010,08,29,07,40,12.90
2010,08,29,07,41,12.90
2010,08,29,07,42,12.90
2010,08,29,07,43,13.00
2010,08,29,07,44,13.00
2010,08,29,07,45,13.10
2010,08,29,07,46,13.10
2010,08,29,07,47,13.10
2010,08,29,07,48,13.10
2010,08,29,07,49,13.20
2010,08,29,07,50,13.20
2010,08,29,07,51,13.30
2010,08,29,07,52,13.30
2010,08,29,07,53,13.30
2010,08,29,07,54,13.40
2010,08,29,07,55,13.50
2010,08,29,07,56,13.50
2010,08,29,07,57,13.60
2010,08,29,07,58,13.60
2010,08,29,07,59,13.70
2010,08,29,08,00,13.70
2010,08,29,08,01,13.80
2010,08,29,08,02,13.80
2010,08,29,08,03,13.90
2010,08,29,08,04,13.90
2010,08,29,08,05,14.00
2010,08,29,08,06,14.00
2010,08,29,08,07,14.10
2010,08,29,08,08,14.20
2010,08,29,08,09,14.20
2010,08,29,08,10,14.20
2010,08,29,08,11,14.20
2010,08,29,08,12,14.20
2010,08,29,08,13,14.20
2010,08,29,08,14,14.20
2010,08,29,08,15,14.20
2010,08,29,08,16,14.20
2010,08,29,08,17,14.20
2010,08,29,08,18,14.20
2010,08,29,08,19,14.20
2010,08,29,08,20,14.20
2010,08,29,08,21,14.30
2010,08,29,08,22,14.30
2010,08,29,08,23,14.30
2010,08,29,08,24,14.30
2010,08,29,08,25,14.30
2010,08,29,08,26,14.30
2010,08,29,08,27,14.30
2010,08,29,08,28,14.30
2010,08,29,08,29,14.30
2010,08,29,08,30,14.30
2010,08,29,08,31,14.30
2010,08,29,08,32,14.30
2010,08,29,08,33,14.30
2010,08,29,08,34,14.30
2010,08,29,08,35,14.30
2010,08,29,08,36,14.30
2010,08,29,08,37,14.20
2010,08,29,08,38,14.20
2010,08,29,08,39,14.20
2010,08,29,08,40,14.20
2010,08,29,08,41,14.20
2010,08,29,08,42,14.20
2010,08,29,08,43,14.20
2010,08,29,08,44,14.20
2010,08,29,08,45,14.20
2010,08,29,08,46,14.20
2010,08,29,08,47,14.20
2010,08,29,08,48,14.20
2010,08,29,08,49,14.20
2010,08,29,08,50,14.20
2010,08,29,08,51,14.30
2010,08,29,08,52,14.30
2010,08,29,08,53,14.30
2010,08,29,08,54,14.30
2010,08,29,08,55,14.30
2010,08,29,08,56,14.40
2010,08,29,08,57,14.40
2010,08,29,08,58,14.40
2010,08,29,08,59,14.50
2010,08,29,09,00,14.50
2010,08,29,09,01,14.60
2010,08,29,09,02,14.60
2010,08,29,09,03,14.70
2010,08,29,09,04,14.70
2010,08,29,09,05,14.70
2010,08,29,09,06,14.70
2010,08,29,09,07,14.70
2010,08,29,09,08,14.70
2010,08,29,09,09,14.70
2010,08,29,09,10,14.80
2010,08,29,09,11,14.80
2010,08,29,09,12,14.80
2010,08,29,09,13,14.80
2010,08,29,09,14,14.90
2010,08,29,09,15,15.00
2010,08,29,09,16,15.00
2010,08,29,09,17,15.00
2010,08,29,09,18,15.00
2010,08,29,09,19,15.00
2010,08,29,09,20,15.00
2010,08,29,09,21,15.00
2010,08,29,09,22,15.00
2010,08,29,09,23,15.10
2010,08,29,09,24,15.20
2010,08,29,09,25,15.30
2010,08,29,09,26,15.30
2010,08,29,09,27,15.50
2010,08,29,09,28,15.60
2010,08,29,09,29,15.70
2010,08,29,09,30,15.80
2010,08,29,09,31,15.80
2010,08,29,09,32,15.90
2010,08,29,09,33,16.00
2010,08,29,09,34,16.00
2010,08,29,09,35,16.10
2010,08,29,09,36,16.20
2010,08,29,09,37,16.20
2010,08,29,09,38,16.20
2010,08,29,09,39,16.20
2010,08,29,09,40,16.20
2010,08,29,09,41,16.20
2010,08,29,09,42,16.20
2010,08,29,09,43,16.20
2010,08,29,09,44,16.20
2010,08,29,09,45,16.20
2010,08,29,09,46,16.20
2010,08,29,09,47,16.20
2010,08,29,09,48,16.20
2010,08,29,09,49,16.30
2010,08,29,09,50,16.30
2010,08,29,09,51,16.40
2010,08,29,09,52,16.40
2010,08,29,09,53,16.40
2010,08,29,09,54,16.40
2010,08,29,09,55,16.40
2010,08,29,09,56,16.40
2010,08,29,09,57,16.30
2010,08,29,09,58,16.30
2010,08,29,09,59,16.20
2010,08,29,10,00,16.10
2010,08,29,10,01,16.10
2010,08,29,10,02,16.00
2010,08,29,10,03,16.00
2010,08,29,10,04,15.90
2010,08,29,10,05,15.90
2010,08,29,10,06,15.80
2010,08,29,10,07,15.80
2010,08,29,10,08,15.80
2010,08,29,10,09,15.80
2010,08,29,10,10,15.70
2010,08,29,10,11,15.70
2010,08,29,10,12,15.70
2010,08,29,10,13,15.60
2010,08,29,10,14,15.60
2010,08,29,10,15,15.70
2010,08,29,10,16,15.60
2010,08,29,10,17,15.60
2010,08,29,10,18,15.60
2010,08,29,10,19,15.60
2010,08,29,10,20,15.50
2010,08,29,10,21,15.50
2010,08,29,10,22,15.50
2010,08,29,10,23,15.40
2010,08,29,10,24,15.40
2010,08,29,10,25,15.40
2010,08,29,10,26,15.40
2010,08,29,10,27,15.40
2010,08,29,10,28,15.40
2010,08,29,10,29,15.50
2010,08,29,10,30,15.60
2010,08,29,10,31,15.60
2010,08,29,10,32,15.70
2010,08,29,10,33,15.70
2010,08,29,10,34,15.70
2010,08,29,10,35,15.70
2010,08,29,10,36,15.70
2010,08,29,10,37,15.70
2010,08,29,10,38,15.70
2010,08,29,10,39,15.80
2010,08,29,10,40,15.80
2010,08,29,10,41,15.80
2010,08,29,10,42,15.90
2010,08,29,10,43,15.90
2010,08,29,10,44,15.90
2010,08,29,10,45,15.90
2010,08,29,10,46,15.90
2010,08,29,10,47,15.80
2010,08,29,10,48,15.80
2010,08,29,10,49,15.80
2010,08,29,10,50,15.80
2010,08,29,10,51,15.80
2010,08,29,10,52,15.70
2010,08,29,10,53,15.70
2010,08,29,10,54,15.70
2010,08,29,10,55,15.70
2010,08,29,10,56,15.60
2010,08,29,10,57,15.60
2010,08,29,10,58,15.60
2010,08,29,10,59,15.60
2010,08,29,11,00,15.60
2010,08,29,11,01,15.60
2010,08,29,11,02,15.70
2010,08,29,11,03,15.70
2010,08,29,11,04,15.70
2010,08,29,11,05,15.80
2010,08,29,11,06,15.80
2010,08,29,11,07,15.80
2010,08,29,11,08,15.90
2010,08,29,11,09,15.80
2010,08,29,11,10,15.80
2010,08,29,11,11,15.80
2010,08,29,11,12,15.80
2010,08,29,11,13,15.80
2010,08,29,11,14,15.80
2010,08,29,11,15,15.90
2010,08,29,11,16,15.90
2010,08,29,11,17,15.90
2010,08,29,11,18,15.90
2010,08,29,11,19,15.90
2010,08,29,11,20,15.90
2010,08,29,11,21,16.00
2010,08,29,11,22,16.00
2010,08,29,11,23,16.00
2010,08,29,11,24,16.00
2010,08,29,11,25,16.10
2010,08,29,11,26,16.10
2010,08,29,11,27,16.10
2010,08,29,11,28,16.10
2010,08,29,11,29,16.10
2010,08,29,11,30,16.10
2010,08,29,11,31,16.10
2010,08,29,11,32,16.10
2010,08,29,11,33,16.00
2010,08,29,11,34,16.00
2010,08,29,11,35,16.00
2010,08,29,11,36,16.00
2010,08,29,11,37,15.90
2010,08,29,11,38,15.90
2010,08,29,11,39,15.90
2010,08,29,11,40,15.90
2010,08,29,11,41,15.90
2010,08,29,11,42,15.90
2010,08,29,11,43,15.90
2010,08,29,11,44,16.00
2010,08,29,11,45,16.10
2010,08,29,11,46,16.10
2010,08,29,11,47,16.10
2010,08,29,11,48,16.20
2010,08,29,11,49,16.20
2010,08,29,11,50,16.30
2010,08,29,11,51,16.30
2010,08,29,11,52,16.30
2010,08,29,11,53,16.30
2010,08,29,11,54,16.30
2010,08,29,11,55,16.30
2010,08,29,11,56,16.20
2010,08,29,11,57,16.20
2010,08,29,11,58,16.20
2010,08,29,11,59,16.20
2010,08,29,12,00,16.20
2010,08,29,12,01,16.20
2010,08,29,12,02,16.20
2010,08,29,12,03,16.20
2010,08,29,12,04,16.30
2010,08,29,12,05,16.40
2010,08,29,12,06,16.40
2010,08,29,12,07,16.40
2010,08,29,12,08,16.40
2010,08,29,12,09,16.40
2010,08,29,12,10,16.40
2010,08,29,12,11,16.30
2010,08,29,12,12,16.30
2010,08,29,12,13,16.30
2010,08,29,12,14,16.30
2010,08,29,12,15,16.30
2010,08,29,12,16,16.40
2010,08,29,12,17,16.50
2010,08,29,12,18,16.60
2010,08,29,12,19,16.80
2010,08,29,12,20,16.80
2010,08,29,12,21,16.80
2010,08,29,12,22,16.80
2010,08,29,12,23,16.80
2010,08,29,12,24,16.70
2010,08,29,12,25,16.60
2010,08,29,12,26,16.70
2010,08,29,12,27,16.70
2010,08,29,12,28,16.70
2010,08,29,12,29,16.80
2010,08,29,12,30,16.80
2010,08,29,12,31,16.70
2010,08,29,12,32,16.80
2010,08,29,12,33,16.80
2010,08,29,12,34,17.00
2010,08,29,12,35,17.00
2010,08,29,12,36,17.10
2010,08,29,12,37,17.10
2010,08,29,12,38,17.10
2010,08,29,12,39,17.10
2010,08,29,12,40,17.10
2010,08,29,12,41,17.20
2010,08,29,12,42,17.40
2010,08,29,12,43,17.40
2010,08,29,12,44,17.40
2010,08,29,12,45,17.40
2010,08,29,12,46,17.40
2010,08,29,12,47,17.40
2010,08,29,12,48,17.40
2010,08,29,12,49,17.30
2010,08,29,12,50,17.20
2010,08,29,12,51,17.30
2010,08,29,12,52,17.30
2010,08,29,12,53,17.30
2010,08,29,12,54,17.30
2010,08,29,12,55,17.30
2010,08,29,12,56,17.20
2010,08,29,12,57,17.20
2010,08,29,12,58,17.20
2010,08,29,12,59,17.20
2010,08,29,13,00,17.30
2010,08,29,13,01,17.30
2010,08,29,13,02,17.30
2010,08,29,13,03,17.30
2010,08,29,13,04,17.40
2010,08,29,13,05,17.50
2010,08,29,13,06,17.60
2010,08,29,13,07,17.80
2010,08,29,13,08,17.80
2010,08,29,13,09,17.80
2010,08,29,13,10,17.80
2010,08,29,13,11,17.70
2010,08,29,13,12,17.60
2010,08,29,13,13,17.50
2010,08,29,13,14,17.40
2010,08,29,13,15,17.20
2010,08,29,13,16,17.10
2010,08,29,13,17,17.00
2010,08,29,13,18,16.90
2010,08,29,13,19,16.90
2010,08,29,13,20,17.00
2010,08,29,13,21,17.10
2010,08,29,13,22,17.10
2010,08,29,13,23,17.10
2010,08,29,13,24,17.00
2010,08,29,13,25,17.00
2010,08,29,13,26,16.90
2010,08,29,13,27,17.00
2010,08,29,13,28,17.10
2010,08,29,13,29,17.00
2010,08,29,13,30,17.00
2010,08,29,13,31,17.10
2010,08,29,13,32,17.30
2010,08,29,13,33,17.40
2010,08,29,13,34,17.40
2010,08,29,13,35,17.40
2010,08,29,13,36,17.60
2010,08,29,13,37,17.70
2010,08,29,13,38,17.90
2010,08,29,13,39,18.00
2010,08,29,13,40,18.10
2010,08,29,13,41,18.00
2010,08,29,13,42,18.10
2010,08,29,13,43,17.90
2010,08,29,13,44,17.80
2010,08,29,13,45,17.80
2010,08,29,13,46,17.90
2010,08,29,13,47,17.90
2010,08,29,13,48,17.80
2010,08,29,13,49,17.80
2010,08,29,13,50,17.90
2010,08,29,13,51,18.00
2010,08,29,13,52,18.00
2010,08,29,13,53,18.00
2010,08,29,13,54,18.10
2010,08,29,13,55,18.20
2010,08,29,13,56,18.20
2010,08,29,13,57,18.10
2010,08,29,13,58,18.00
2010,08,29,13,59,18.10
2010,08,29,14,00,18.00
2010,08,29,14,01,17.90
2010,08,29,14,02,18.00
2010,08,29,14,03,18.00
2010,08,29,14,04,17.90
2010,08,29,14,05,17.80
2010,08,29,14,06,17.80
2010,08,29,14,07,17.90
2010,08,29,14,08,18.00
2010,08,29,14,09,18.10
2010,08,29,14,10,17.90
2010,08,29,14,11,17.70
2010,08,29,14,12,17.60
2010,08,29,14,13,17.60
2010,08,29,14,14,17.60
2010,08,29,14,15,17.60
2010,08,29,14,16,17.70
2010,08,29,14,17,17.60
2010,08,29,14,18,17.60
2010,08,29,14,19,17.60
2010,08,29,14,20,17.50
2010,08,29,14,21,17.60
2010,08,29,14,22,17.60
2010,08,29,14,23,17.60
2010,08,29,14,24,17.60
2010,08,29,14,25,17.80
2010,08,29,14,26,17.80
2010,08,29,14,27,17.80
2010,08,29,14,28,17.80
2010,08,29,14,29,17.90
2010,08,29,14,30,17.90
2010,08,29,14,31,17.90
2010,08,29,14,32,17.90
2010,08,29,14,33,17.80
2010,08,29,14,34,17.80
2010,08,29,14,35,17.80
2010,08,29,14,36,17.80
2010,08,29,14,37,17.90
2010,08,29,14,38,17.90
2010,08,29,14,39,17.90
2010,08,29,14,40,17.90
2010,08,29,14,41,17.90
2010,08,29,14,42,17.90
2010,08,29,14,43,17.90
2010,08,29,14,44,17.90
2010,08,29,14,45,17.80
2010,08,29,14,46,17.80
2010,08,29,14,47,17.70
2010,08,29,14,48,17.70
2010,08,29,14,49,17.70
2010,08,29,14,50,17.80
2010,08,29,14,51,17.90
2010,08,29,14,52,17.90
2010,08,29,14,53,18.00
2010,08,29,14,54,18.10
2010,08,29,14,55,18.00
2010,08,29,14,56,17.90
2010,08,29,14,57,17.80
2010,08,29,14,58,17.80
2010,08,29,14,59,17.80
2010,08,29,15,00,17.80
2010,08,29,15,01,17.80
2010,08,29,15,02,17.80
2010,08,29,15,03,17.70
2010,08,29,15,04,17.70
2010,08,29,15,05,17.80
2010,08,29,15,06,17.80
2010,08,29,15,07,17.80
2010,08,29,15,08,17.80
2010,08,29,15,09,17.80
2010,08,29,15,10,17.90
2010,08,29,15,11,17.90
2010,08,29,15,12,18.00
2010,08,29,15,13,17.90
2010,08,29,15,14,17.90
2010,08,29,15,15,18.00
2010,08,29,15,16,18.10
2010,08,29,15,17,18.20
2010,08,29,15,18,18.30
2010,08,29,15,19,18.40
2010,08,29,15,20,18.40
2010,08,29,15,21,18.40
2010,08,29,15,22,18.40
2010,08,29,15,23,18.40
2010,08,29,15,24,18.40
2010,08,29,15,25,18.40
2010,08,29,15,26,18.40
2010,08,29,15,27,18.40
2010,08,29,15,28,18.40
2010,08,29,15,29,18.50
2010,08,29,15,30,18.60
2010,08,29,15,31,18.70
2010,08,29,15,32,18.80
2010,08,29,15,33,18.80
2010,08,29,15,34,18.70
2010,08,29,15,35,18.70
2010,08,29,15,36,18.70
2010,08,29,15,37,18.70
2010,08,29,15,38,18.70
2010,08,29,15,39,18.70
2010,08,29,15,40,18.80
2010,08,29,15,41,18.70
2010,08,29,15,42,18.80
2010,08,29,15,43,18.90
2010,08,29,15,44,18.90
2010,08,29,15,45,19.10
2010,08,29,15,46,19.10
2010,08,29,15,47,19.10
2010,08,29,15,48,19.00
2010,08,29,15,49,19.00
2010,08,29,15,50,18.90
2010,08,29,15,51,18.90
2010,08,29,15,52,18.90
2010,08,29,15,53,18.90
2010,08,29,15,54,18.90
2010,08,29,15,55,18.90
2010,08,29,15,56,18.90
2010,08,29,15,57,18.80
2010,08,29,15,58,18.80
2010,08,29,15,59,18.80
2010,08,29,16,00,18.90
2010,08,29,16,01,18.90
2010,08,29,16,02,18.80
2010,08,29,16,03,18.80
2010,08,29,16,04,18.70
2010,08,29,16,05,18.60
2010,08,29,16,06,18.40
2010,08,29,16,07,18.30
2010,08,29,16,08,18.10
2010,08,29,16,09,18.00
2010,08,29,16,10,17.80
2010,08,29,16,11,17.70
2010,08,29,16,12,17.60
2010,08,29,16,13,17.50
2010,08,29,16,14,17.40
2010,08,29,16,15,17.40
2010,08,29,16,16,17.30
2010,08,29,16,17,17.30
2010,08,29,16,18,17.20
2010,08,29,16,19,17.20
2010,08,29,16,20,17.20
2010,08,29,16,21,17.10
2010,08,29,16,22,17.10
2010,08,29,16,23,17.10
2010,08,29,16,24,17.10
2010,08,29,16,25,17.10
2010,08,29,16,26,17.10
2010,08,29,16,27,17.00
2010,08,29,16,28,17.00
2010,08,29,16,29,17.00
2010,08,29,16,30,17.00
2010,08,29,16,31,17.00
2010,08,29,16,32,17.00
2010,08,29,16,33,17.00
2010,08,29,16,34,17.00
2010,08,29,16,35,17.10
2010,08,29,16,36,17.10
2010,08,29,16,37,17.10
2010,08,29,16,38,17.20
2010,08,29,16,39,17.30
2010,08,29,16,40,17.30
2010,08,29,16,41,17.40
2010,08,29,16,42,17.40
2010,08,29,16,43,17.40
2010,08,29,16,44,17.40
2010,08,29,16,45,17.40
2010,08,29,16,46,17.40
2010,08,29,16,47,17.50
2010,08,29,16,48,17.60
2010,08,29,16,49,17.60
2010,08,29,16,50,17.80
2010,08,29,16,51,17.80
2010,08,29,16,52,17.90
2010,08,29,16,53,18.00
2010,08,29,16,54,18.20
2010,08,29,16,55,18.30
2010,08,29,16,56,18.30
2010,08,29,16,57,18.40
2010,08,29,16,58,18.40
2010,08,29,16,59,18.50
2010,08,29,17,00,18.60
2010,08,29,17,01,18.60
2010,08,29,17,02,18.70
2010,08,29,17,03,18.70
2010,08,29,17,04,18.80
2010,08,29,17,05,18.90
2010,08,29,17,06,19.00
2010,08,29,17,07,19.10
2010,08,29,17,08,19.10
2010,08,29,17,09,19.20
2010,08,29,17,10,19.20
2010,08,29,17,11,19.10
2010,08,29,17,12,19.10
2010,08,29,17,13,19.00
2010,08,29,17,14,18.90
2010,08,29,17,15,18.90
2010,08,29,17,16,18.80
2010,08,29,17,17,18.70
2010,08,29,17,18,18.50
2010,08,29,17,19,18.30
2010,08,29,17,20,18.20
2010,08,29,17,21,18.00
2010,08,29,17,22,17.80
2010,08,29,17,23,17.80